Time,TemperatureF,DewpointF,PressureIn,WindDirection,WindDirectionDegrees,WindSpeedMPH,WindSpeedGustMPH,Humidity,HourlyPrecipIn,Conditions,Clouds,dailyrainin,SoftwareType,DateUTC
2013-12-09 00:00:00,34.4,33.4,30.35,NNE,14,0.0,0.0,96,0.00,,---,0.00,VWS V14.01,2013-12-09 05:00:00,
2013-12-09 00:01:00,34.4,33.4,30.35,NNE,15,0.0,1.0,96,0.00,,---,0.00,VWS V14.01,2013-12-09 05:01:00,
2013-12-09 00:06:00,34.4,33.4,30.35,NE,35,3.0,3.0,96,0.00,,---,0.00,VWS V14.01,2013-12-09 05:06:00,
2013-12-09 00:11:00,34.4,33.4,30.35,ENE,65,0.0,0.0,96,0.00,,---,0.00,VWS V14.01,2013-12-09 05:11:00,
2013-12-09 00:16:00,34.4,33.4,30.35,NE,34,2.0,2.0,96,0.00,,---,0.00,VWS V14.01,2013-12-09 05:16:00,
2013-12-09 00:21:00,34.5,33.5,30.34,ENE,69,3.0,3.0,96,0.00,,---,0.00,VWS V14.01,2013-12-09 05:21:00,
2013-12-09 00:26:00,34.4,33.4,30.34,NE,49,2.0,3.0,96,0.00,,---,0.00,VWS V14.01,2013-12-09 05:26:00,
2013-12-09 00:31:00,34.4,33.4,30.33,NE,38,2.0,3.0,96,0.00,,---,0.00,VWS V14.01,2013-12-09 05:31:00,
2013-12-09 00:36:00,34.5,33.5,30.34,North,11,2.0,2.0,96,0.00,,---,0.00,VWS V14.01,2013-12-09 05:36:00,
2013-12-09 00:41:00,34.5,33.5,30.34,North,360,1.0,1.0,96,0.00,,---,0.00,VWS V14.01,2013-12-09 05:41:00,
2013-12-09 00:46:00,34.7,33.7,30.33,North,360,0.0,0.0,96,0.00,,---,0.00,VWS V14.01,2013-12-09 05:46:00,
2013-12-09 00:51:00,34.7,33.7,30.32,NE,49,1.0,1.0,96,0.00,,---,0.00,VWS V14.01,2013-12-09 05:51:00,
2013-12-09 00:56:00,34.7,33.7,30.32,ENE,76,3.0,3.0,96,0.00,,---,0.00,VWS V14.01,2013-12-09 05:56:00,
2013-12-09 01:01:00,34.6,33.6,30.31,ENE,63,2.0,2.0,96,0.00,,---,0.00,VWS V14.01,2013-12-09 06:01:00,
2013-12-09 01:06:00,34.7,33.7,30.31,NE,49,2.0,2.0,96,0.00,,---,0.00,VWS V14.01,2013-12-09 06:06:00,
2013-12-09 01:11:00,34.7,33.7,30.31,NNE,32,2.0,2.0,96,0.00,,---,0.00,VWS V14.01,2013-12-09 06:11:00,
2013-12-09 01:16:00,34.7,33.7,30.32,NNW,346,1.0,1.0,96,0.00,,---,0.00,VWS V14.01,2013-12-09 06:16:00,
2013-12-09 01:21:00,34.8,33.8,30.30,ENE,61,1.0,3.0,96,0.00,,---,0.00,VWS V14.01,2013-12-09 06:21:00,
2013-12-09 01:26:00,34.8,33.8,30.30,ENE,70,1.0,1.0,96,0.00,,---,0.00,VWS V14.01,2013-12-09 06:26:00,
2013-12-09 01:31:00,34.9,33.9,30.30,ENE,69,1.0,2.0,96,0.00,,---,0.00,VWS V14.01,2013-12-09 06:31:00,
2013-12-09 01:36:00,34.8,33.8,30.30,East,88,1.0,1.0,96,0.00,,---,0.00,VWS V14.01,2013-12-09 06:36:00,
2013-12-09 01:41:00,34.8,33.8,30.30,East,84,1.0,1.0,96,0.00,,---,0.00,VWS V14.01,2013-12-09 06:41:00,
2013-12-09 01:46:00,34.8,33.8,30.30,East,84,1.0,1.0,96,0.00,,---,0.00,VWS V14.01,2013-12-09 06:46:00,
2013-12-09 01:51:00,34.9,33.9,30.30,East,85,0.0,2.0,96,0.00,,---,0.00,VWS V14.01,2013-12-09 06:51:00,
2013-12-09 01:56:00,35.0,34.0,30.30,NE,42,0.0,1.0,96,0.00,,---,0.00,VWS V14.01,2013-12-09 06:56:00,
2013-12-09 02:00:00,35.0,34.2,30.30,NE,42,1.0,1.0,97,0.00,,---,0.00,VWS V14.01,2013-12-09 07:00:00,
2013-12-09 02:05:00,34.9,33.9,30.29,East,98,1.0,2.0,96,0.00,,---,0.00,VWS V14.01,2013-12-09 07:05:00,
2013-12-09 02:10:00,34.9,33.9,30.29,East,98,0.0,0.0,96,0.00,,---,0.00,VWS V14.01,2013-12-09 07:10:00,
2013-12-09 02:15:00,35.0,34.0,30.30,East,98,1.0,1.0,96,0.00,,---,0.00,VWS V14.01,2013-12-09 07:15:00,
2013-12-09 02:20:00,35.0,34.0,30.30,East,98,0.0,0.0,96,0.00,,---,0.00,VWS V14.01,2013-12-09 07:20:00,
2013-12-09 02:25:00,35.1,34.3,30.30,East,98,0.0,0.0,97,0.00,,---,0.00,VWS V14.01,2013-12-09 07:25:00,
2013-12-09 02:30:00,35.1,34.3,30.31,East,98,0.0,0.0,97,0.00,,---,0.00,VWS V14.01,2013-12-09 07:30:00,
2013-12-09 02:35:00,35.2,34.4,30.30,East,98,0.0,0.0,97,0.00,,---,0.00,VWS V14.01,2013-12-09 07:35:00,
2013-12-09 02:40:00,35.2,34.4,30.30,East,98,0.0,0.0,97,0.00,,---,0.00,VWS V14.01,2013-12-09 07:40:00,
2013-12-09 02:45:00,35.2,34.4,30.30,East,98,0.0,1.0,97,0.00,,---,0.00,VWS V14.01,2013-12-09 07:45:00,
2013-12-09 02:50:00,35.3,34.5,30.30,West,267,2.0,2.0,97,0.00,,---,0.00,VWS V14.01,2013-12-09 07:50:00,
2013-12-09 02:55:00,35.2,34.4,30.30,West,271,2.0,3.0,97,0.00,,---,0.00,VWS V14.01,2013-12-09 07:55:00,
2013-12-09 03:00:00,35.2,34.4,30.31,West,269,1.0,2.0,97,0.00,,---,0.00,VWS V14.01,2013-12-09 08:00:00,
2013-12-09 03:05:00,35.2,34.4,30.30,West,270,0.0,1.0,97,0.00,,---,0.00,VWS V14.01,2013-12-09 08:05:00,
2013-12-09 03:10:00,35.2,34.4,30.31,West,272,1.0,2.0,97,0.00,,---,0.00,VWS V14.01,2013-12-09 08:10:00,
2013-12-09 03:15:00,35.2,34.4,30.31,NW,316,1.0,1.0,97,0.00,,---,0.00,VWS V14.01,2013-12-09 08:15:00,
2013-12-09 03:20:00,35.2,34.4,30.30,NW,321,0.0,1.0,97,0.00,,---,0.00,VWS V14.01,2013-12-09 08:20:00,
2013-12-09 03:25:00,35.2,34.4,30.30,West,273,0.0,0.0,97,0.00,,---,0.00,VWS V14.01,2013-12-09 08:25:00,
2013-12-09 03:30:00,35.3,34.5,30.30,West,273,0.0,0.0,97,0.00,,---,0.00,VWS V14.01,2013-12-09 08:30:00,
2013-12-09 03:35:00,35.3,34.5,30.30,West,273,0.0,0.0,97,0.00,,---,0.00,VWS V14.01,2013-12-09 08:35:00,
2013-12-09 03:40:00,35.4,34.6,30.30,West,274,0.0,1.0,97,0.00,,---,0.00,VWS V14.01,2013-12-09 08:40:00,
2013-12-09 03:45:00,35.5,34.7,30.30,West,273,1.0,1.0,97,0.00,,---,0.00,VWS V14.01,2013-12-09 08:45:00,
2013-12-09 03:50:00,35.5,34.7,30.30,WSW,255,1.0,2.0,97,0.00,,---,0.00,VWS V14.01,2013-12-09 08:50:00,
2013-12-09 03:55:00,35.4,34.6,30.30,WSW,249,1.0,1.0,97,0.00,,---,0.00,VWS V14.01,2013-12-09 08:55:00,
2013-12-09 03:56:00,35.4,34.6,30.30,WSW,246,1.0,1.0,97,0.00,,---,0.00,VWS V14.01,2013-12-09 08:56:00,
2013-12-09 04:01:00,35.4,34.6,30.30,West,270,0.0,0.0,97,0.00,,---,0.00,VWS V14.01,2013-12-09 09:01:00,
2013-12-09 04:06:00,35.3,34.5,30.30,West,272,0.0,0.0,97,0.00,,---,0.00,VWS V14.01,2013-12-09 09:06:00,
2013-12-09 04:11:00,35.4,34.6,30.29,West,271,0.0,0.0,97,0.00,,---,0.00,VWS V14.01,2013-12-09 09:11:00,
2013-12-09 04:16:00,35.4,34.6,30.28,West,272,0.0,0.0,97,0.00,,---,0.00,VWS V14.01,2013-12-09 09:16:00,
2013-12-09 04:21:00,35.4,34.6,30.28,West,272,0.0,0.0,97,0.00,,---,0.00,VWS V14.01,2013-12-09 09:21:00,
2013-12-09 04:26:00,35.3,34.5,30.28,West,272,0.0,0.0,97,0.00,,---,0.00,VWS V14.01,2013-12-09 09:26:00,
2013-12-09 04:31:00,35.4,34.6,30.28,West,272,0.0,0.0,97,0.00,,---,0.00,VWS V14.01,2013-12-09 09:31:00,
2013-12-09 04:36:00,35.4,34.6,30.27,West,272,0.0,0.0,97,0.00,,---,0.00,VWS V14.01,2013-12-09 09:36:00,
2013-12-09 04:41:00,35.4,34.6,30.28,WNW,290,2.0,2.0,97,0.00,,---,0.00,VWS V14.01,2013-12-09 09:41:00,
2013-12-09 04:46:00,35.4,34.6,30.27,WNW,290,0.0,0.0,97,0.00,,---,0.00,VWS V14.01,2013-12-09 09:46:00,
2013-12-09 04:51:00,35.4,34.6,30.26,WNW,290,0.0,0.0,97,0.00,,---,0.00,VWS V14.01,2013-12-09 09:51:00,
2013-12-09 04:56:00,35.5,34.7,30.26,WNW,289,0.0,0.0,97,0.01,,---,0.01,VWS V14.01,2013-12-09 09:56:00,
2013-12-09 05:01:00,35.5,34.7,30.25,ESE,109,1.0,2.0,97,0.01,,---,0.01,VWS V14.01,2013-12-09 10:01:00,
2013-12-09 05:06:00,35.6,34.8,30.24,ESE,117,1.0,1.0,97,0.01,,---,0.01,VWS V14.01,2013-12-09 10:06:00,
2013-12-09 05:11:00,35.7,34.9,30.24,SE,128,1.0,3.0,97,0.01,,---,0.01,VWS V14.01,2013-12-09 10:11:00,
2013-12-09 05:16:00,35.8,35.0,30.24,SW,221,0.0,1.0,97,0.01,,---,0.01,VWS V14.01,2013-12-09 10:16:00,
2013-12-09 05:20:00,35.9,35.1,30.24,SSE,159,1.0,2.0,97,0.01,,---,0.01,VWS V14.01,2013-12-09 10:20:00,
2013-12-09 05:25:00,36.0,35.2,30.24,SSE,157,0.0,1.0,97,0.01,,---,0.01,VWS V14.01,2013-12-09 10:25:00,
2013-12-09 05:30:00,36.0,35.2,30.24,SSE,157,0.0,1.0,97,0.01,,---,0.01,VWS V14.01,2013-12-09 10:30:00,
2013-12-09 05:35:00,36.0,35.2,30.24,SE,131,1.0,1.0,97,0.01,,---,0.01,VWS V14.01,2013-12-09 10:35:00,
2013-12-09 05:40:00,36.1,35.3,30.24,SW,223,2.0,3.0,97,0.01,,---,0.01,VWS V14.01,2013-12-09 10:40:00,
2013-12-09 05:45:00,36.1,35.3,30.24,SSW,202,3.0,3.0,97,0.01,,---,0.01,VWS V14.01,2013-12-09 10:45:00,
2013-12-09 05:50:00,36.2,35.4,30.25,South,182,3.0,4.0,97,0.01,,---,0.01,VWS V14.01,2013-12-09 10:50:00,
2013-12-09 05:55:00,36.2,35.4,30.24,SSE,160,1.0,2.0,97,0.00,,---,0.01,VWS V14.01,2013-12-09 10:55:00,
2013-12-09 06:00:00,36.2,35.4,30.24,SW,215,2.0,2.0,97,0.00,,---,0.01,VWS V14.01,2013-12-09 11:00:00,
2013-12-09 06:05:00,36.2,35.4,30.26,West,275,2.0,2.0,97,0.00,,---,0.01,VWS V14.01,2013-12-09 11:05:00,
2013-12-09 06:10:00,36.3,35.5,30.26,SW,233,2.0,3.0,97,0.00,,---,0.01,VWS V14.01,2013-12-09 11:10:00,
2013-12-09 06:15:00,36.2,35.4,30.27,WNW,296,3.0,3.0,97,0.00,,---,0.01,VWS V14.01,2013-12-09 11:15:00,
2013-12-09 06:20:00,36.3,35.5,30.27,WSW,257,4.0,4.0,97,0.00,,---,0.01,VWS V14.01,2013-12-09 11:20:00,
2013-12-09 06:25:00,36.3,35.5,30.27,WNW,298,3.0,3.0,97,0.00,,---,0.01,VWS V14.01,2013-12-09 11:25:00,
2013-12-09 06:30:00,36.3,35.5,30.27,NNE,16,1.0,1.0,97,0.00,,---,0.01,VWS V14.01,2013-12-09 11:30:00,
2013-12-09 06:35:00,36.3,35.5,30.27,NW,311,4.0,4.0,97,0.00,,---,0.01,VWS V14.01,2013-12-09 11:35:00,
2013-12-09 06:40:00,36.2,35.4,30.26,WNW,287,0.0,1.0,97,0.00,,---,0.01,VWS V14.01,2013-12-09 11:40:00,
2013-12-09 06:45:00,36.2,35.4,30.26,NW,317,0.0,1.0,97,0.00,,---,0.01,VWS V14.01,2013-12-09 11:45:00,
2013-12-09 06:50:00,36.2,35.4,30.27,West,270,1.0,4.0,97,0.00,,---,0.01,VWS V14.01,2013-12-09 11:50:00,
2013-12-09 06:55:00,36.3,35.5,30.27,West,270,1.0,1.0,97,0.00,,---,0.01,VWS V14.01,2013-12-09 11:55:00,
2013-12-09 07:00:00,36.3,35.5,30.26,West,269,0.0,0.0,97,0.00,,---,0.01,VWS V14.01,2013-12-09 12:00:00,
2013-12-09 07:05:00,36.3,35.5,30.26,WNW,298,0.0,0.0,97,0.00,,---,0.01,VWS V14.01,2013-12-09 12:05:00,
2013-12-09 07:10:00,36.3,35.5,30.27,West,265,2.0,2.0,97,0.00,,---,0.01,VWS V14.01,2013-12-09 12:10:00,
2013-12-09 07:15:00,36.4,35.6,30.26,West,267,0.0,0.0,97,0.00,,---,0.01,VWS V14.01,2013-12-09 12:15:00,
2013-12-09 07:20:00,36.3,35.5,30.25,West,267,0.0,0.0,97,0.00,,---,0.01,VWS V14.01,2013-12-09 12:20:00,
2013-12-09 07:25:00,36.3,35.5,30.25,West,265,1.0,1.0,97,0.00,,---,0.01,VWS V14.01,2013-12-09 12:25:00,
2013-12-09 07:30:00,36.3,35.5,30.26,West,272,1.0,1.0,97,0.00,,---,0.01,VWS V14.01,2013-12-09 12:30:00,
2013-12-09 07:35:00,36.4,35.6,30.26,West,272,0.0,1.0,97,0.00,,---,0.01,VWS V14.01,2013-12-09 12:35:00,
2013-12-09 07:40:00,36.4,35.6,30.26,West,275,0.0,1.0,97,0.00,,---,0.01,VWS V14.01,2013-12-09 12:40:00,
2013-12-09 07:45:00,36.5,35.7,30.25,West,274,0.0,0.0,97,0.00,,---,0.01,VWS V14.01,2013-12-09 12:45:00,
2013-12-09 07:50:00,36.6,35.8,30.26,WSW,250,1.0,1.0,97,0.00,,---,0.01,VWS V14.01,2013-12-09 12:50:00,
2013-12-09 07:55:00,36.6,35.8,30.25,SSE,161,2.0,2.0,97,0.00,,---,0.01,VWS V14.01,2013-12-09 12:55:00,
2013-12-09 08:00:00,36.7,35.9,30.25,SSE,163,1.0,2.0,97,0.00,,---,0.01,VWS V14.01,2013-12-09 13:00:00,
2013-12-09 08:05:00,36.9,36.1,30.24,South,172,2.0,4.0,97,0.00,,---,0.01,VWS V14.01,2013-12-09 13:05:00,
2013-12-09 08:09:00,36.9,36.1,30.24,SSW,200,0.0,3.0,97,0.00,,---,0.01,VWS V14.01,2013-12-09 13:09:00,
2013-12-09 08:14:00,37.0,36.2,30.24,South,191,3.0,3.0,97,0.00,,---,0.01,VWS V14.01,2013-12-09 13:14:00,
2013-12-09 08:19:00,37.2,36.4,30.24,SSE,167,2.0,2.0,97,0.00,,---,0.01,VWS V14.01,2013-12-09 13:19:00,
2013-12-09 08:24:00,37.2,36.4,30.23,WSW,249,2.0,3.0,97,0.00,,---,0.01,VWS V14.01,2013-12-09 13:24:00,
2013-12-09 08:29:00,37.6,36.8,30.23,SSE,167,1.0,2.0,97,0.00,,---,0.01,VWS V14.01,2013-12-09 13:29:00,
2013-12-09 08:34:00,37.9,37.1,30.23,East,84,3.0,3.0,97,0.00,,---,0.01,VWS V14.01,2013-12-09 13:34:00,
2013-12-09 08:39:00,37.9,37.1,30.22,NE,42,2.0,3.0,97,0.00,,---,0.01,VWS V14.01,2013-12-09 13:39:00,
2013-12-09 08:44:00,38.1,37.3,30.23,SSE,165,1.0,2.0,97,0.00,,---,0.01,VWS V14.01,2013-12-09 13:44:00,
2013-12-09 08:49:00,38.2,37.4,30.23,WSW,251,2.0,3.0,97,0.00,,---,0.01,VWS V14.01,2013-12-09 13:49:00,
2013-12-09 08:54:00,38.2,37.4,30.23,SW,223,0.0,0.0,97,0.00,,---,0.01,VWS V14.01,2013-12-09 13:54:00,
2013-12-09 08:59:00,38.2,37.4,30.24,WSW,246,1.0,2.0,97,0.00,,---,0.01,VWS V14.01,2013-12-09 13:59:00,
2013-12-09 09:04:00,38.3,37.5,30.24,South,183,2.0,2.0,97,0.00,,---,0.01,VWS V14.01,2013-12-09 14:04:00,
2013-12-09 09:09:00,38.4,37.6,30.23,SW,214,1.0,1.0,97,0.00,,---,0.01,VWS V14.01,2013-12-09 14:09:00,
2013-12-09 09:14:00,38.5,37.7,30.25,West,281,1.0,3.0,97,0.00,,---,0.01,VWS V14.01,2013-12-09 14:14:00,
2013-12-09 09:19:00,38.7,37.9,30.24,South,188,0.0,0.0,97,0.00,,---,0.01,VWS V14.01,2013-12-09 14:19:00,
2013-12-09 09:24:00,38.8,38.0,30.23,SW,219,2.0,2.0,97,0.00,,---,0.01,VWS V14.01,2013-12-09 14:24:00,
2013-12-09 09:29:00,38.8,38.0,30.24,SW,230,2.0,2.0,97,0.00,,---,0.01,VWS V14.01,2013-12-09 14:29:00,
2013-12-09 09:34:00,38.8,38.0,30.24,SW,221,2.0,3.0,97,0.00,,---,0.01,VWS V14.01,2013-12-09 14:34:00,
2013-12-09 09:39:00,39.1,38.3,30.24,WNW,285,4.0,4.0,97,0.00,,---,0.01,VWS V14.01,2013-12-09 14:39:00,
2013-12-09 09:44:00,39.1,38.3,30.25,WSW,255,4.0,5.0,97,0.00,,---,0.01,VWS V14.01,2013-12-09 14:44:00,
2013-12-09 09:49:00,39.2,38.4,30.26,WSW,256,4.0,6.0,97,0.00,,---,0.01,VWS V14.01,2013-12-09 14:49:00,
2013-12-09 09:54:00,39.3,38.5,30.26,WSW,244,4.0,5.0,97,0.00,,---,0.01,VWS V14.01,2013-12-09 14:54:00,
2013-12-09 09:59:00,39.2,38.4,30.27,West,275,5.0,5.0,97,0.00,,---,0.01,VWS V14.01,2013-12-09 14:59:00,
2013-12-09 10:04:00,39.1,38.3,30.26,West,263,1.0,4.0,97,0.00,,---,0.01,VWS V14.01,2013-12-09 15:04:00,
2013-12-09 10:09:00,39.3,38.5,30.26,NW,311,1.0,4.0,97,0.00,,---,0.01,VWS V14.01,2013-12-09 15:09:00,
2013-12-09 10:14:00,39.2,38.4,30.25,WSW,245,2.0,2.0,97,0.00,,---,0.01,VWS V14.01,2013-12-09 15:14:00,
2013-12-09 10:19:00,39.1,38.3,30.25,WNW,283,2.0,3.0,97,0.00,,---,0.01,VWS V14.01,2013-12-09 15:19:00,
2013-12-09 10:24:00,39.1,38.3,30.25,West,267,1.0,2.0,97,0.00,,---,0.01,VWS V14.01,2013-12-09 15:24:00,
2013-12-09 10:29:00,39.0,38.2,30.26,WNW,294,0.0,0.0,97,0.00,,---,0.01,VWS V14.01,2013-12-09 15:29:00,
2013-12-09 10:34:00,39.1,38.3,30.25,West,277,1.0,1.0,97,0.00,,---,0.01,VWS V14.01,2013-12-09 15:34:00,
2013-12-09 10:39:00,39.1,38.3,30.25,WNW,300,2.0,2.0,97,0.00,,---,0.01,VWS V14.01,2013-12-09 15:39:00,
2013-12-09 10:44:00,39.1,38.3,30.25,SW,230,1.0,1.0,97,0.00,,---,0.01,VWS V14.01,2013-12-09 15:44:00,
2013-12-09 10:49:00,39.2,38.4,30.24,WNW,290,0.0,0.0,97,0.00,,---,0.01,VWS V14.01,2013-12-09 15:49:00,
2013-12-09 10:54:00,39.2,38.4,30.24,WNW,289,0.0,0.0,97,0.00,,---,0.01,VWS V14.01,2013-12-09 15:54:00,
2013-12-09 10:59:00,39.3,38.5,30.24,West,270,0.0,0.0,97,0.00,,---,0.01,VWS V14.01,2013-12-09 15:59:00,
2013-12-09 11:04:00,39.5,38.7,30.25,West,277,1.0,2.0,97,0.00,,---,0.01,VWS V14.01,2013-12-09 16:04:00,
2013-12-09 11:09:00,39.5,38.7,30.24,West,272,1.0,1.0,97,0.00,,---,0.01,VWS V14.01,2013-12-09 16:09:00,
2013-12-09 11:14:00,39.5,38.7,30.24,West,271,1.0,1.0,97,0.00,,---,0.01,VWS V14.01,2013-12-09 16:14:00,
2013-12-09 11:20:00,39.5,38.7,30.24,WSW,250,1.0,1.0,97,0.00,,---,0.01,VWS V14.01,2013-12-09 16:20:00,
2013-12-09 11:25:00,39.5,38.7,30.23,SW,223,0.0,2.0,97,0.00,,---,0.01,VWS V14.01,2013-12-09 16:25:00,
2013-12-09 11:30:00,39.7,38.9,30.22,SW,223,1.0,3.0,97,0.00,,---,0.01,VWS V14.01,2013-12-09 16:30:00,
2013-12-09 11:35:00,39.8,39.0,30.23,West,269,2.0,2.0,97,0.00,,---,0.01,VWS V14.01,2013-12-09 16:35:00,
2013-12-09 11:40:00,40.0,39.2,30.22,SW,221,0.0,3.0,97,0.00,,---,0.01,VWS V14.01,2013-12-09 16:40:00,
2013-12-09 11:45:00,40.1,39.3,30.22,SSW,211,2.0,3.0,97,0.00,,---,0.01,VWS V14.01,2013-12-09 16:45:00,
2013-12-09 11:50:00,40.3,39.5,30.20,SSE,160,3.0,4.0,97,0.01,,---,0.02,VWS V14.01,2013-12-09 16:50:00,
2013-12-09 11:55:00,40.5,39.7,30.20,West,259,4.0,4.0,97,0.01,,---,0.02,VWS V14.01,2013-12-09 16:55:00,
2013-12-09 12:00:00,40.7,39.9,30.20,SSW,205,2.0,4.0,97,0.01,,---,0.02,VWS V14.01,2013-12-09 17:00:00,
2013-12-09 12:05:00,40.9,40.1,30.19,SW,222,4.0,4.0,97,0.01,,---,0.02,VWS V14.01,2013-12-09 17:05:00,
2013-12-09 12:10:00,41.1,40.3,30.20,WSW,246,2.0,3.0,97,0.01,,---,0.02,VWS V14.01,2013-12-09 17:10:00,
2013-12-09 12:15:00,41.4,40.6,30.18,SSW,206,1.0,3.0,97,0.01,,---,0.02,VWS V14.01,2013-12-09 17:15:00,
2013-12-09 12:20:00,41.5,40.7,30.19,West,275,2.0,2.0,97,0.01,,---,0.02,VWS V14.01,2013-12-09 17:20:00,
2013-12-09 12:25:00,41.5,40.7,30.19,WSW,252,0.0,3.0,97,0.01,,---,0.02,VWS V14.01,2013-12-09 17:25:00,
2013-12-09 12:30:00,41.7,40.9,30.19,WNW,283,1.0,1.0,97,0.01,,---,0.02,VWS V14.01,2013-12-09 17:30:00,
2013-12-09 12:35:00,41.7,40.9,30.19,West,281,2.0,3.0,97,0.01,,---,0.02,VWS V14.01,2013-12-09 17:35:00,
2013-12-09 12:40:00,41.9,41.1,30.19,West,265,1.0,2.0,97,0.01,,---,0.02,VWS V14.01,2013-12-09 17:40:00,
2013-12-09 12:45:00,42.0,41.2,30.18,West,272,0.0,0.0,97,0.01,,---,0.02,VWS V14.01,2013-12-09 17:45:00,
2013-12-09 12:50:00,42.2,41.4,30.18,West,269,3.0,4.0,97,0.01,,---,0.02,VWS V14.01,2013-12-09 17:50:00,
2013-12-09 12:55:00,42.3,41.5,30.19,WNW,294,3.0,3.0,97,0.00,,---,0.02,VWS V14.01,2013-12-09 17:55:00,
2013-12-09 13:00:00,42.6,41.8,30.19,WNW,287,1.0,3.0,97,0.00,,---,0.02,VWS V14.01,2013-12-09 18:00:00,
2013-12-09 13:05:00,42.7,41.9,30.19,West,272,3.0,5.0,97,0.00,,---,0.02,VWS V14.01,2013-12-09 18:05:00,
2013-12-09 13:10:00,42.8,42.0,30.18,West,281,3.0,3.0,97,0.00,,---,0.02,VWS V14.01,2013-12-09 18:10:00,
2013-12-09 13:15:00,42.8,42.0,30.19,NW,310,1.0,2.0,97,0.00,,---,0.02,VWS V14.01,2013-12-09 18:15:00,
2013-12-09 13:20:00,42.6,41.8,30.18,NNW,344,3.0,5.0,97,0.00,,---,0.02,VWS V14.01,2013-12-09 18:20:00,
2013-12-09 13:25:00,42.4,41.6,30.19,WNW,283,1.0,2.0,97,0.00,,---,0.02,VWS V14.01,2013-12-09 18:25:00,
2013-12-09 13:30:00,42.3,41.5,30.19,NNW,337,3.0,5.0,97,0.00,,---,0.02,VWS V14.01,2013-12-09 18:30:00,
2013-12-09 13:35:00,42.2,41.4,30.18,WNW,283,3.0,3.0,97,0.00,,---,0.02,VWS V14.01,2013-12-09 18:35:00,
2013-12-09 13:40:00,42.1,41.3,30.18,WSW,251,1.0,2.0,97,0.00,,---,0.02,VWS V14.01,2013-12-09 18:40:00,
2013-12-09 13:45:00,42.0,41.2,30.18,NE,34,2.0,3.0,97,0.00,,---,0.02,VWS V14.01,2013-12-09 18:45:00,
2013-12-09 13:50:00,41.9,41.1,30.17,West,274,1.0,2.0,97,0.00,,---,0.02,VWS V14.01,2013-12-09 18:50:00,
2013-12-09 13:55:00,41.9,41.1,30.17,SSW,213,1.0,1.0,97,0.00,,---,0.02,VWS V14.01,2013-12-09 18:55:00,
2013-12-09 14:00:00,41.9,41.1,30.17,West,259,2.0,2.0,97,0.00,,---,0.02,VWS V14.01,2013-12-09 19:00:00,
2013-12-09 14:05:00,42.0,41.2,30.17,WSW,254,1.0,2.0,97,0.00,,---,0.02,VWS V14.01,2013-12-09 19:05:00,
2013-12-09 14:10:00,42.0,41.2,30.17,WNW,283,1.0,2.0,97,0.00,,---,0.02,VWS V14.01,2013-12-09 19:10:00,
2013-12-09 14:15:00,42.1,41.3,30.17,West,277,1.0,1.0,97,0.00,,---,0.02,VWS V14.01,2013-12-09 19:15:00,
2013-12-09 14:20:00,42.2,41.4,30.17,West,280,2.0,4.0,97,0.00,,---,0.02,VWS V14.01,2013-12-09 19:20:00,
2013-12-09 14:25:00,42.2,41.4,30.17,WSW,252,1.0,1.0,97,0.00,,---,0.02,VWS V14.01,2013-12-09 19:25:00,
2013-12-09 14:30:00,42.3,41.5,30.17,WNW,283,1.0,2.0,97,0.00,,---,0.02,VWS V14.01,2013-12-09 19:30:00,
2013-12-09 14:35:00,42.2,41.4,30.16,WSW,252,0.0,1.0,97,0.00,,---,0.02,VWS V14.01,2013-12-09 19:35:00,
2013-12-09 14:40:00,42.3,41.5,30.16,WSW,246,1.0,1.0,97,0.00,,---,0.02,VWS V14.01,2013-12-09 19:40:00,
2013-12-09 14:45:00,42.3,41.5,30.16,West,260,3.0,4.0,97,0.00,,---,0.02,VWS V14.01,2013-12-09 19:45:00,
2013-12-09 14:50:00,42.4,41.6,30.16,West,269,1.0,3.0,97,0.00,,---,0.02,VWS V14.01,2013-12-09 19:50:00,
2013-12-09 14:55:00,42.5,41.7,30.16,SW,230,1.0,1.0,97,0.00,,---,0.02,VWS V14.01,2013-12-09 19:55:00,
2013-12-09 15:00:00,42.5,41.7,30.16,West,259,2.0,3.0,97,0.00,,---,0.02,VWS V14.01,2013-12-09 20:00:00,
2013-12-09 15:05:00,42.7,41.9,30.16,WNW,284,2.0,2.0,97,0.00,,---,0.02,VWS V14.01,2013-12-09 20:05:00,
2013-12-09 15:10:00,42.8,42.0,30.16,South,178,1.0,2.0,97,0.00,,---,0.02,VWS V14.01,2013-12-09 20:10:00,
2013-12-09 15:15:00,42.9,42.1,30.16,West,272,1.0,3.0,97,0.00,,---,0.02,VWS V14.01,2013-12-09 20:15:00,
2013-12-09 15:20:00,42.9,42.1,30.16,West,268,4.0,4.0,97,0.00,,---,0.02,VWS V14.01,2013-12-09 20:20:00,
2013-12-09 15:25:00,43.1,42.3,30.17,WNW,286,2.0,2.0,97,0.00,,---,0.02,VWS V14.01,2013-12-09 20:25:00,
2013-12-09 15:30:00,43.2,42.4,30.17,WNW,291,0.0,0.0,97,0.00,,---,0.02,VWS V14.01,2013-12-09 20:30:00,
2013-12-09 15:35:00,43.2,42.4,30.16,West,269,1.0,2.0,97,0.00,,---,0.02,VWS V14.01,2013-12-09 20:35:00,
2013-12-09 15:40:00,43.1,42.3,30.15,SW,214,1.0,1.0,97,0.00,,---,0.02,VWS V14.01,2013-12-09 20:40:00,
2013-12-09 15:45:00,43.3,42.5,30.16,SW,214,0.0,0.0,97,0.00,,---,0.02,VWS V14.01,2013-12-09 20:45:00,
2013-12-09 15:50:00,43.3,42.5,30.16,WSW,253,0.0,0.0,97,0.00,,---,0.02,VWS V14.01,2013-12-09 20:50:00,
2013-12-09 15:55:00,43.3,42.5,30.16,West,267,2.0,3.0,97,0.00,,---,0.02,VWS V14.01,2013-12-09 20:55:00,
2013-12-09 16:00:00,43.4,42.6,30.16,WSW,249,0.0,0.0,97,0.00,,---,0.02,VWS V14.01,2013-12-09 21:00:00,
2013-12-09 16:05:00,43.5,42.7,30.16,WSW,246,1.0,2.0,97,0.00,,---,0.02,VWS V14.01,2013-12-09 21:05:00,
2013-12-09 16:10:00,43.4,42.6,30.16,West,272,1.0,1.0,97,0.00,,---,0.02,VWS V14.01,2013-12-09 21:10:00,
2013-12-09 16:15:00,43.4,42.6,30.16,West,276,1.0,1.0,97,0.00,,---,0.02,VWS V14.01,2013-12-09 21:15:00,
2013-12-09 16:20:00,43.5,42.7,30.17,WNW,300,2.0,2.0,97,0.00,,---,0.02,VWS V14.01,2013-12-09 21:20:00,
2013-12-09 16:25:00,43.6,42.8,30.17,WNW,298,0.0,0.0,97,0.00,,---,0.02,VWS V14.01,2013-12-09 21:25:00,
2013-12-09 16:30:00,43.5,42.7,30.17,NNE,12,1.0,2.0,97,0.00,,---,0.02,VWS V14.01,2013-12-09 21:30:00,
2013-12-09 16:35:00,43.5,42.7,30.17,West,273,0.0,1.0,97,0.00,,---,0.02,VWS V14.01,2013-12-09 21:35:00,
2013-12-09 16:40:00,43.5,42.7,30.17,West,263,2.0,2.0,97,0.00,,---,0.02,VWS V14.01,2013-12-09 21:40:00,
2013-12-09 16:45:00,43.5,42.7,30.17,WNW,287,0.0,0.0,97,0.00,,---,0.02,VWS V14.01,2013-12-09 21:45:00,
2013-12-09 16:50:00,43.5,42.7,30.17,West,275,1.0,1.0,97,0.00,,---,0.02,VWS V14.01,2013-12-09 21:50:00,
2013-12-09 16:55:00,43.5,42.7,30.17,West,275,0.0,0.0,97,0.00,,---,0.02,VWS V14.01,2013-12-09 21:55:00,
2013-12-09 17:00:00,43.5,42.7,30.16,West,274,0.0,0.0,97,0.00,,---,0.02,VWS V14.01,2013-12-09 22:00:00,
2013-12-09 17:05:00,43.5,42.7,30.16,West,259,0.0,0.0,97,0.00,,---,0.02,VWS V14.01,2013-12-09 22:05:00,
2013-12-09 17:10:00,43.5,42.7,30.17,West,279,2.0,2.0,97,0.00,,---,0.02,VWS V14.01,2013-12-09 22:10:00,
2013-12-09 17:15:00,43.5,42.7,30.17,WNW,283,0.0,0.0,97,0.00,,---,0.02,VWS V14.01,2013-12-09 22:15:00,
2013-12-09 17:20:00,43.5,42.7,30.17,West,275,0.0,0.0,97,0.00,,---,0.02,VWS V14.01,2013-12-09 22:20:00,
2013-12-09 17:25:00,43.6,42.8,30.17,West,275,0.0,0.0,97,0.00,,---,0.02,VWS V14.01,2013-12-09 22:25:00,
2013-12-09 17:30:00,43.6,42.8,30.17,West,275,0.0,0.0,97,0.00,,---,0.02,VWS V14.01,2013-12-09 22:30:00,
2013-12-09 17:35:00,43.6,42.8,30.17,West,274,0.0,0.0,97,0.00,,---,0.02,VWS V14.01,2013-12-09 22:35:00,
2013-12-09 17:40:00,43.7,42.9,30.17,West,277,0.0,0.0,97,0.00,,---,0.02,VWS V14.01,2013-12-09 22:40:00,
2013-12-09 17:45:00,43.7,42.9,30.17,West,268,1.0,2.0,97,0.00,,---,0.02,VWS V14.01,2013-12-09 22:45:00,
2013-12-09 17:50:00,43.7,42.9,30.17,SSW,209,1.0,1.0,97,0.01,,---,0.03,VWS V14.01,2013-12-09 22:50:00,
2013-12-09 17:55:00,43.8,43.0,30.16,South,171,0.0,0.0,97,0.01,,---,0.03,VWS V14.01,2013-12-09 22:55:00,
2013-12-09 18:00:00,43.8,43.0,30.16,West,268,0.0,0.0,97,0.01,,---,0.03,VWS V14.01,2013-12-09 23:00:00,
2013-12-09 18:05:00,43.9,43.1,30.17,SW,226,0.0,2.0,97,0.01,,---,0.03,VWS V14.01,2013-12-09 23:05:00,
2013-12-09 18:10:00,43.9,43.1,30.17,SW,229,1.0,1.0,97,0.01,,---,0.03,VWS V14.01,2013-12-09 23:10:00,
2013-12-09 18:15:00,44.0,43.2,30.17,West,263,1.0,1.0,97,0.01,,---,0.03,VWS V14.01,2013-12-09 23:15:00,
2013-12-09 18:20:00,44.0,43.2,30.17,West,268,1.0,1.0,97,0.01,,---,0.03,VWS V14.01,2013-12-09 23:20:00,
2013-12-09 18:25:00,44.0,43.2,30.17,WSW,252,1.0,1.0,97,0.01,,---,0.03,VWS V14.01,2013-12-09 23:25:00,
2013-12-09 18:30:00,44.1,43.6,30.17,WSW,252,0.0,1.0,98,0.01,,---,0.03,VWS V14.01,2013-12-09 23:30:00,
2013-12-09 18:35:00,44.1,43.6,30.17,WSW,252,0.0,0.0,98,0.02,,---,0.04,VWS V14.01,2013-12-09 23:35:00,
2013-12-09 18:40:00,44.2,43.7,30.17,WSW,252,0.0,1.0,98,0.03,,---,0.05,VWS V14.01,2013-12-09 23:40:00,
2013-12-09 18:45:00,44.2,43.7,30.17,WSW,251,0.0,0.0,98,0.03,,---,0.05,VWS V14.01,2013-12-09 23:45:00,
2013-12-09 18:50:00,44.3,43.8,30.17,WSW,251,0.0,0.0,98,0.02,,---,0.05,VWS V14.01,2013-12-09 23:50:00,
2013-12-09 18:54:00,44.4,43.9,30.17,WSW,251,2.0,2.0,98,0.02,,---,0.05,VWS V14.01,2013-12-09 23:54:00,
2013-12-09 18:59:00,44.4,43.9,30.17,WSW,246,0.0,0.0,98,0.03,,---,0.06,VWS V14.01,2013-12-09 23:59:00,
2013-12-09 19:04:00,44.4,43.9,30.17,WSW,246,0.0,0.0,98,0.03,,---,0.06,VWS V14.01,2013-12-10 00:04:00,
2013-12-09 19:09:00,44.4,43.9,30.17,WSW,246,0.0,0.0,98,0.04,,---,0.07,VWS V14.01,2013-12-10 00:09:00,
2013-12-09 19:14:00,44.4,43.9,30.18,WSW,246,0.0,0.0,98,0.04,,---,0.07,VWS V14.01,2013-12-10 00:14:00,
2013-12-09 19:19:00,44.5,44.0,30.18,West,269,0.0,0.0,98,0.05,,---,0.08,VWS V14.01,2013-12-10 00:19:00,
2013-12-09 19:24:00,44.5,44.0,30.17,NE,34,0.0,0.0,98,0.05,,---,0.08,VWS V14.01,2013-12-10 00:24:00,
2013-12-09 19:29:00,44.5,44.0,30.17,NNE,33,0.0,0.0,98,0.05,,---,0.08,VWS V14.01,2013-12-10 00:29:00,
2013-12-09 19:34:00,44.6,44.1,30.18,NE,34,0.0,0.0,98,0.04,,---,0.08,VWS V14.01,2013-12-10 00:34:00,
2013-12-09 19:39:00,44.7,44.2,30.18,West,268,1.0,1.0,98,0.03,,---,0.08,VWS V14.01,2013-12-10 00:39:00,
2013-12-09 19:44:00,44.6,44.1,30.18,West,280,0.0,1.0,98,0.03,,---,0.08,VWS V14.01,2013-12-10 00:44:00,
2013-12-09 19:49:00,44.6,44.1,30.17,West,280,0.0,0.0,98,0.03,,---,0.08,VWS V14.01,2013-12-10 00:49:00,
2013-12-09 19:54:00,44.6,44.1,30.17,West,280,1.0,1.0,98,0.03,,---,0.08,VWS V14.01,2013-12-10 00:54:00,
2013-12-09 19:59:00,44.6,44.1,30.16,NE,36,0.0,1.0,98,0.02,,---,0.08,VWS V14.01,2013-12-10 00:59:00,
2013-12-09 20:04:00,44.7,44.2,30.18,SW,233,1.0,1.0,98,0.02,,---,0.08,VWS V14.01,2013-12-10 01:04:00,
2013-12-09 20:09:00,44.8,44.3,30.17,SW,226,0.0,0.0,98,0.01,,---,0.08,VWS V14.01,2013-12-10 01:09:00,
2013-12-09 20:14:00,44.8,44.3,30.17,SSW,198,0.0,1.0,98,0.02,,---,0.09,VWS V14.01,2013-12-10 01:14:00,
2013-12-09 20:19:00,44.9,44.4,30.16,ESE,107,0.0,0.0,98,0.02,,---,0.10,VWS V14.01,2013-12-10 01:19:00,
2013-12-09 20:24:00,45.0,44.5,30.18,SW,233,3.0,3.0,98,0.02,,---,0.10,VWS V14.01,2013-12-10 01:24:00,
2013-12-09 20:29:00,45.1,44.6,30.17,WSW,249,1.0,2.0,98,0.02,,---,0.10,VWS V14.01,2013-12-10 01:29:00,
2013-12-09 20:34:00,45.1,44.6,30.17,WSW,252,1.0,1.0,98,0.02,,---,0.10,VWS V14.01,2013-12-10 01:34:00,
2013-12-09 20:39:00,45.2,44.7,30.17,WSW,252,0.0,0.0,98,0.02,,---,0.10,VWS V14.01,2013-12-10 01:39:00,
2013-12-09 20:44:00,45.3,44.8,30.15,NNE,32,1.0,2.0,98,0.02,,---,0.10,VWS V14.01,2013-12-10 01:44:00,
2013-12-09 20:49:00,45.4,44.9,30.16,NNE,32,0.0,0.0,98,0.03,,---,0.11,VWS V14.01,2013-12-10 01:49:00,
2013-12-09 20:54:00,45.5,45.0,30.16,SW,219,1.0,1.0,98,0.03,,---,0.11,VWS V14.01,2013-12-10 01:54:00,
2013-12-09 20:59:00,45.6,45.1,30.15,SW,215,0.0,0.0,98,0.03,,---,0.11,VWS V14.01,2013-12-10 01:59:00,
2013-12-09 21:04:00,45.7,45.2,30.16,SW,217,0.0,0.0,98,0.03,,---,0.11,VWS V14.01,2013-12-10 02:04:00,
2013-12-09 21:09:00,45.7,45.2,30.16,SW,217,0.0,0.0,98,0.03,,---,0.11,VWS V14.01,2013-12-10 02:09:00,
2013-12-09 21:14:00,45.8,45.3,30.17,WSW,245,0.0,0.0,98,0.02,,---,0.11,VWS V14.01,2013-12-10 02:14:00,
2013-12-09 21:19:00,45.9,45.4,30.17,WSW,245,0.0,0.0,98,0.01,,---,0.11,VWS V14.01,2013-12-10 02:19:00,
2013-12-09 21:24:00,45.9,45.4,30.17,WSW,245,0.0,0.0,98,0.01,,---,0.11,VWS V14.01,2013-12-10 02:24:00,
2013-12-09 21:29:00,46.0,45.5,30.17,WSW,248,0.0,0.0,98,0.01,,---,0.11,VWS V14.01,2013-12-10 02:29:00,
2013-12-09 21:34:00,46.0,45.5,30.17,WSW,248,0.0,0.0,98,0.01,,---,0.11,VWS V14.01,2013-12-10 02:34:00,
2013-12-09 21:39:00,46.1,45.6,30.16,WSW,237,0.0,1.0,98,0.01,,---,0.11,VWS V14.01,2013-12-10 02:39:00,
2013-12-09 21:44:00,46.2,45.7,30.17,West,259,1.0,2.0,98,0.01,,---,0.11,VWS V14.01,2013-12-10 02:44:00,
2013-12-09 21:49:00,46.3,45.8,30.16,WSW,242,0.0,0.0,98,0.00,,---,0.11,VWS V14.01,2013-12-10 02:49:00,
2013-12-09 21:54:00,46.4,45.9,30.17,WSW,256,1.0,2.0,98,0.00,,---,0.11,VWS V14.01,2013-12-10 02:54:00,
2013-12-09 21:59:00,46.5,46.0,30.17,West,260,0.0,1.0,98,0.00,,---,0.11,VWS V14.01,2013-12-10 02:59:00,
2013-12-09 22:04:00,46.6,46.1,30.16,West,259,0.0,1.0,98,0.00,,---,0.11,VWS V14.01,2013-12-10 03:04:00,
2013-12-09 22:09:00,46.7,46.2,30.16,West,275,1.0,1.0,98,0.00,,---,0.11,VWS V14.01,2013-12-10 03:09:00,
2013-12-09 22:14:00,46.7,46.2,30.16,West,274,0.0,0.0,98,0.00,,---,0.11,VWS V14.01,2013-12-10 03:14:00,
2013-12-09 22:19:00,46.8,46.3,30.16,SW,230,0.0,0.0,98,0.00,,---,0.11,VWS V14.01,2013-12-10 03:19:00,
2013-12-09 22:24:00,46.8,46.3,30.16,WSW,253,1.0,2.0,98,0.00,,---,0.11,VWS V14.01,2013-12-10 03:24:00,
2013-12-09 22:29:00,46.8,46.3,30.15,WSW,250,1.0,1.0,98,0.00,,---,0.11,VWS V14.01,2013-12-10 03:29:00,
2013-12-09 22:34:00,46.8,46.3,30.16,WSW,242,0.0,0.0,98,0.00,,---,0.11,VWS V14.01,2013-12-10 03:34:00,
2013-12-09 22:39:00,46.9,46.4,30.16,WSW,250,0.0,0.0,98,0.00,,---,0.11,VWS V14.01,2013-12-10 03:39:00,
2013-12-09 22:44:00,46.9,46.4,30.16,West,277,1.0,1.0,98,0.00,,---,0.11,VWS V14.01,2013-12-10 03:44:00,
2013-12-09 22:49:00,46.9,46.4,30.16,West,277,0.0,1.0,98,0.00,,---,0.11,VWS V14.01,2013-12-10 03:49:00,
2013-12-09 22:54:00,47.0,46.5,30.16,West,277,1.0,1.0,98,0.00,,---,0.11,VWS V14.01,2013-12-10 03:54:00,
2013-12-09 22:59:00,46.9,46.4,30.15,West,277,0.0,0.0,98,0.00,,---,0.11,VWS V14.01,2013-12-10 03:59:00,
2013-12-09 23:04:00,46.9,46.4,30.15,West,277,0.0,0.0,98,0.00,,---,0.11,VWS V14.01,2013-12-10 04:04:00,
2013-12-09 23:09:00,47.0,46.5,30.15,West,277,0.0,0.0,98,0.00,,---,0.11,VWS V14.01,2013-12-10 04:09:00,
2013-12-09 23:14:00,47.0,46.5,30.15,West,259,1.0,1.0,98,0.00,,---,0.11,VWS V14.01,2013-12-10 04:14:00,
2013-12-09 23:19:00,47.0,46.5,30.15,West,260,1.0,1.0,98,0.00,,---,0.11,VWS V14.01,2013-12-10 04:19:00,
2013-12-09 23:24:00,47.0,46.5,30.14,West,261,0.0,0.0,98,0.00,,---,0.11,VWS V14.01,2013-12-10 04:24:00,
2013-12-09 23:29:00,47.1,46.6,30.13,West,260,0.0,0.0,98,0.00,,---,0.11,VWS V14.01,2013-12-10 04:29:00,
2013-12-09 23:34:00,47.0,46.5,30.13,West,260,0.0,0.0,98,0.00,,---,0.11,VWS V14.01,2013-12-10 04:34:00,
2013-12-09 23:39:00,47.0,46.5,30.14,West,260,0.0,0.0,98,0.00,,---,0.11,VWS V14.01,2013-12-10 04:39:00,
2013-12-09 23:44:00,47.0,46.5,30.13,West,260,1.0,1.0,98,0.00,,---,0.11,VWS V14.01,2013-12-10 04:44:00,
2013-12-09 23:49:00,47.0,46.5,30.13,West,260,0.0,0.0,98,0.00,,---,0.11,VWS V14.01,2013-12-10 04:49:00,
2013-12-09 23:54:00,46.9,46.4,30.13,West,260,0.0,0.0,98,0.00,,---,0.11,VWS V14.01,2013-12-10 04:54:00,
2013-12-09 23:59:00,46.9,46.4,30.13,West,261,0.0,0.0,98,0.00,,---,0.11,VWS V14.01,2013-12-10 04:59:00,